contact:dominique.lefevre@mio.osupytheas.fr, maurice.libes@osupytheas.fr, didier.mallarino@osupytheas.fr
Project:EMSO http://www.emso-fr.org/EMSO-France
Depth: 2436.0 m
Title:EMSO Ligure Ouest : Data MII capteur MICROCAT
DateTime_Computer,Latitude,Longitude,Temperature,Conductivity,Pressure,DateTime_Instrument
DateTime_Computer,Latitude,Longitude,degC,S m-1,dbar,DateTime_Instrument
2022-04-05T09:58:08Z,42.805,6.029,13.2999,4.60041,2470.38,2022-4-05T11:59:45Z
2022-04-05T10:01:11Z,42.805,6.029,13.3000,4.60036,2470.32,2022-4-05T12:02:49Z
2022-04-05T10:04:14Z,42.805,6.029,13.3001,4.60067,2470.32,2022-4-05T12:05:52Z
2022-04-05T10:07:17Z,42.805,6.029,13.3000,4.60054,2470.334,2022-4-05T12:08:55Z
2022-04-05T10:10:20Z,42.805,6.029,13.3004,4.60105,2470.357,2022-4-05T12:11:58Z
2022-04-05T10:13:23Z,42.805,6.029,13.3006,4.60069,2470.357,2022-4-05T12:15:01Z
2022-04-05T10:16:27Z,42.805,6.029,13.3006,4.60066,2470.297,2022-4-05T12:18:04Z
2022-04-05T10:19:30Z,42.805,6.029,13.3002,4.60059,2470.297,2022-4-05T12:21:07Z
2022-04-05T10:22:33Z,42.805,6.029,13.3011,4.60096,2470.287,2022-4-05T12:24:10Z
2022-04-05T10:25:36Z,42.805,6.029,13.3009,4.60098,2470.297,2022-4-05T12:27:13Z
2022-04-05T10:28:39Z,42.805,6.029,13.3003,4.60113,2470.297,2022-4-05T12:30:17Z
2022-04-05T10:31:42Z,42.805,6.029,13.3006,4.60099,2470.273,2022-4-05T12:33:20Z
2022-04-05T10:34:45Z,42.805,6.029,13.3015,4.60051,2470.31,2022-4-05T12:36:23Z
2022-04-05T10:37:48Z,42.805,6.029,13.3013,4.60062,2470.273,2022-4-05T12:39:26Z
2022-04-05T10:40:52Z,42.805,6.029,13.3011,4.60049,2470.32,2022-4-05T12:42:29Z
2022-04-05T10:43:55Z,42.805,6.029,13.3011,4.60067,2470.287,2022-4-05T12:45:32Z
2022-04-05T10:46:58Z,42.805,6.029,13.3012,4.60079,2470.273,2022-4-05T12:48:35Z
2022-04-05T10:50:01Z,42.805,6.029,13.3012,4.60085,2470.25,2022-4-05T12:51:38Z
2022-04-05T10:53:04Z,42.805,6.029,13.3026,4.60055,2470.297,2022-4-05T12:54:42Z
2022-04-05T10:56:07Z,42.805,6.029,13.3021,4.60050,2470.273,2022-4-05T12:57:45Z
2022-04-05T10:59:10Z,42.805,6.029,13.3014,4.60074,2470.273,2022-4-05T13:00:48Z
2022-04-05T11:02:13Z,42.805,6.029,13.3002,4.60041,2470.25,2022-4-05T13:03:51Z
2022-04-05T11:05:16Z,42.805,6.029,13.3001,4.60045,2470.227,2022-4-05T13:06:54Z
2022-04-05T11:08:20Z,42.805,6.029,13.3000,4.60037,2470.264,2022-4-05T13:09:57Z
2022-04-05T11:11:23Z,42.805,6.029,13.3005,4.60040,2470.287,2022-4-05T13:13:00Z
2022-04-05T11:14:26Z,42.805,6.029,13.3027,4.60052,2470.287,2022-4-05T13:16:03Z
2022-04-05T11:17:29Z,42.805,6.029,13.3021,4.60050,2470.227,2022-4-05T13:19:07Z
2022-04-05T11:20:32Z,42.805,6.029,13.3021,4.60092,2470.217,2022-4-05T13:22:10Z
2022-04-05T11:23:35Z,42.805,6.029,13.3027,4.60061,2470.227,2022-4-05T13:25:13Z
2022-04-05T11:26:38Z,42.805,6.029,13.3024,4.60086,2470.217,2022-4-05T13:28:16Z
2022-04-05T11:29:41Z,42.805,6.029,13.3036,4.60116,2470.264,2022-4-05T13:31:19Z
2022-04-05T11:32:45Z,42.805,6.029,13.3029,4.60087,2470.25,2022-4-05T13:34:22Z
2022-04-05T11:35:48Z,42.805,6.029,13.3034,4.60124,2470.217,2022-4-05T13:37:25Z
2022-04-05T11:38:51Z,42.805,6.029,13.3063,4.60089,2470.227,2022-4-05T13:40:28Z
2022-04-05T11:41:54Z,42.805,6.029,13.3016,4.60057,2470.203,2022-4-05T13:43:32Z
2022-04-05T11:44:57Z,42.805,6.029,13.3045,4.60074,2470.25,2022-4-05T13:46:35Z
2022-04-05T11:48:00Z,42.805,6.029,13.3024,4.60099,2470.217,2022-4-05T13:49:38Z
2022-04-05T11:51:03Z,42.805,6.029,13.3027,4.60076,2470.227,2022-4-05T13:52:41Z
2022-04-05T11:54:06Z,42.805,6.029,13.3018,4.60092,2470.203,2022-4-05T13:55:44Z
2022-04-05T11:57:10Z,42.805,6.029,13.3044,4.60074,2470.203,2022-4-05T13:58:47Z
2022-04-05T12:00:13Z,42.805,6.029,13.3015,4.60104,2470.203,2022-4-05T14:01:50Z
2022-04-05T12:03:16Z,42.805,6.029,13.3028,4.60081,2470.227,2022-4-05T14:04:53Z
2022-04-05T12:06:19Z,42.805,6.029,13.3016,4.60105,2470.18,2022-4-05T14:07:56Z
2022-04-05T12:09:22Z,42.805,6.029,13.3024,4.60087,2470.24,2022-4-05T14:11:00Z
2022-04-05T12:12:25Z,42.805,6.029,13.3033,4.60089,2470.18,2022-4-05T14:14:03Z
2022-04-05T12:15:28Z,42.805,6.029,13.3036,4.60110,2470.203,2022-4-05T14:17:06Z
2022-04-05T12:18:31Z,42.805,6.029,13.3039,4.60109,2470.217,2022-4-05T14:20:09Z
2022-04-05T12:21:34Z,42.805,6.029,13.3045,4.60120,2470.24,2022-4-05T14:23:12Z
2022-04-05T12:24:38Z,42.805,6.029,13.3051,4.60114,2470.217,2022-4-05T14:26:15Z
2022-04-05T12:27:41Z,42.805,6.029,13.3036,4.60081,2470.217,2022-4-05T14:29:18Z
2022-04-05T12:30:44Z,42.805,6.029,13.3031,4.60099,2470.194,2022-4-05T14:32:21Z
2022-04-05T12:33:47Z,42.805,6.029,13.3085,4.60130,2470.18,2022-4-05T14:35:25Z
2022-04-05T12:36:50Z,42.805,6.029,13.3096,4.60114,2470.194,2022-4-05T14:38:28Z
2022-04-05T12:39:53Z,42.805,6.029,13.3098,4.60119,2470.194,2022-4-05T14:41:31Z
2022-04-05T12:42:56Z,42.805,6.029,13.3099,4.60104,2470.217,2022-4-05T14:44:34Z
2022-04-05T12:45:59Z,42.805,6.029,13.3079,4.60069,2470.194,2022-4-05T14:47:37Z
2022-04-05T12:49:03Z,42.805,6.029,13.3045,4.60082,2470.217,2022-4-05T14:50:40Z
2022-04-05T12:52:06Z,42.805,6.029,13.3030,4.60084,2470.18,2022-4-05T14:53:43Z
2022-04-05T12:55:09Z,42.805,6.029,13.3053,4.60091,2470.147,2022-4-05T14:56:46Z
2022-04-05T12:58:12Z,42.805,6.029,13.3034,4.60099,2470.133,2022-4-05T14:59:50Z
2022-04-05T13:01:15Z,42.805,6.029,13.3039,4.60091,2470.147,2022-4-05T15:02:53Z
2022-04-05T13:04:18Z,42.805,6.029,13.3050,4.60081,2470.156,2022-4-05T15:05:56Z
2022-04-05T13:07:21Z,42.805,6.029,13.3035,4.60072,2470.133,2022-4-05T15:08:59Z
2022-04-05T13:10:24Z,42.805,6.029,13.3029,4.60096,2470.156,2022-4-05T15:12:02Z
2022-04-05T13:13:28Z,42.805,6.029,13.3049,4.60107,2470.147,2022-4-05T15:15:05Z
2022-04-05T13:16:31Z,42.805,6.029,13.3021,4.60112,2470.133,2022-4-05T15:18:08Z
2022-04-05T13:19:34Z,42.805,6.029,13.3036,4.60077,2470.133,2022-4-05T15:21:11Z
2022-04-05T13:22:37Z,42.805,6.029,13.3046,4.60064,2470.11,2022-4-05T15:24:14Z
2022-04-05T13:25:40Z,42.805,6.029,13.3025,4.60060,2470.147,2022-4-05T15:27:18Z
2022-04-05T13:28:43Z,42.805,6.029,13.3039,4.60077,2470.147,2022-4-05T15:30:21Z
2022-04-05T13:31:46Z,42.805,6.029,13.3062,4.60092,2470.133,2022-4-05T15:33:24Z
2022-04-05T13:34:49Z,42.805,6.029,13.3058,4.60090,2470.11,2022-4-05T15:36:27Z
2022-04-05T13:37:52Z,42.805,6.029,13.3069,4.60110,2470.161,2022-4-05T15:39:30Z
2022-04-05T13:40:56Z,42.805,6.029,13.3036,4.60079,2470.133,2022-4-05T15:42:33Z
2022-04-05T13:43:59Z,42.805,6.029,13.3047,4.60064,2470.124,2022-4-05T15:45:36Z
2022-04-05T13:47:02Z,42.805,6.029,13.3080,4.60055,2470.11,2022-4-05T15:48:39Z
2022-04-05T13:50:05Z,42.805,6.029,13.3062,4.60082,2470.087,2022-4-05T15:51:43Z
2022-04-05T13:53:08Z,42.805,6.029,13.3063,4.60099,2470.124,2022-4-05T15:54:46Z
2022-04-05T13:56:11Z,42.805,6.029,13.3036,4.60106,2470.124,2022-4-05T15:57:49Z
2022-04-05T13:59:14Z,42.805,6.029,13.3057,4.60075,2470.124,2022-4-05T16:00:52Z
2022-04-05T14:02:17Z,42.805,6.029,13.3044,4.60104,2470.063,2022-4-05T16:03:55Z
2022-04-05T14:05:21Z,42.805,6.029,13.3046,4.60081,2470.124,2022-4-05T16:06:58Z
2022-04-05T14:08:24Z,42.805,6.029,13.3058,4.60111,2470.124,2022-4-05T16:10:01Z
2022-04-05T14:11:27Z,42.805,6.029,13.3057,4.60086,2470.124,2022-4-05T16:13:04Z
2022-04-05T14:14:30Z,42.805,6.029,13.3043,4.60086,2470.124,2022-4-05T16:16:08Z
2022-04-05T14:17:33Z,42.805,6.029,13.3046,4.60111,2470.124,2022-4-05T16:19:11Z
2022-04-05T14:20:36Z,42.805,6.029,13.3039,4.60084,2470.1,2022-4-05T16:22:14Z
2022-04-05T14:23:39Z,42.805,6.029,13.3044,4.60055,2470.063,2022-4-05T16:25:17Z
2022-04-05T14:26:42Z,42.805,6.029,13.3077,4.60062,2470.1,2022-4-05T16:28:20Z
2022-04-05T14:29:46Z,42.805,6.029,13.3080,4.60058,2470.087,2022-4-05T16:31:23Z
2022-04-05T14:32:49Z,42.805,6.029,13.3078,4.60074,2470.1,2022-4-05T16:34:26Z
2022-04-05T14:35:52Z,42.805,6.029,13.3041,4.60076,2470.1,2022-4-05T16:37:29Z
2022-04-05T14:38:55Z,42.805,6.029,13.3054,4.60070,2470.1,2022-4-05T16:40:33Z
2022-04-05T14:41:58Z,42.805,6.029,13.3051,4.60079,2470.063,2022-4-05T16:43:36Z
2022-04-05T14:45:01Z,42.805,6.029,13.3039,4.60076,2470.077,2022-4-05T16:46:39Z
2022-04-05T14:48:04Z,42.805,6.029,13.3037,4.60069,2470.077,2022-4-05T16:49:42Z
2022-04-05T14:51:07Z,42.805,6.029,13.3034,4.60079,2470.1,2022-4-05T16:52:45Z
2022-04-05T14:54:11Z,42.805,6.029,13.3048,4.60079,2470.087,2022-4-05T16:55:48Z
2022-04-05T14:57:14Z,42.805,6.029,13.3057,4.60069,2470.087,2022-4-05T16:58:51Z
2022-04-05T15:00:17Z,42.805,6.029,13.3069,4.60072,2470.1,2022-4-05T17:01:54Z
2022-04-05T15:03:20Z,42.805,6.029,13.3078,4.60081,2470.077,2022-4-05T17:04:58Z
2022-04-05T15:06:23Z,42.805,6.029,13.3069,4.60074,2470.077,2022-4-05T17:08:01Z
2022-04-05T15:09:26Z,42.805,6.029,13.3071,4.60074,2470.077,2022-4-05T17:11:04Z
2022-04-05T15:12:29Z,42.805,6.029,13.3071,4.60068,2470.077,2022-4-05T17:14:07Z
2022-04-05T15:15:32Z,42.805,6.029,13.3076,4.60068,2470.063,2022-4-05T17:17:10Z
2022-04-05T15:18:36Z,42.805,6.029,13.3078,4.60077,2470.1,2022-4-05T17:20:13Z
2022-04-05T15:21:39Z,42.805,6.029,13.3073,4.60098,2470.1,2022-4-05T17:23:16Z
2022-04-05T15:24:42Z,42.805,6.029,13.3053,4.60111,2470.124,2022-4-05T17:26:19Z
2022-04-05T15:27:45Z,42.805,6.029,13.3078,4.60085,2470.1,2022-4-05T17:29:23Z
2022-04-05T15:30:48Z,42.805,6.029,13.3069,4.60080,2470.077,2022-4-05T17:32:26Z
2022-04-05T15:33:51Z,42.805,6.029,13.3055,4.60100,2470.077,2022-4-05T17:35:29Z
2022-04-05T15:36:54Z,42.805,6.029,13.3060,4.60102,2470.077,2022-4-05T17:38:32Z
2022-04-05T15:39:57Z,42.805,6.029,13.3073,4.60072,2470.077,2022-4-05T17:41:35Z
2022-04-05T15:43:00Z,42.805,6.029,13.3049,4.60074,2470.077,2022-4-05T17:44:38Z
2022-04-05T15:46:04Z,42.805,6.029,13.3030,4.60112,2470.124,2022-4-05T17:47:41Z
2022-04-05T15:49:07Z,42.805,6.029,13.3074,4.60111,2470.077,2022-4-05T17:50:44Z
2022-04-05T15:52:10Z,42.805,6.029,13.3080,4.60104,2470.063,2022-4-05T17:53:48Z
2022-04-05T15:55:13Z,42.805,6.029,13.3067,4.60117,2470.087,2022-4-05T17:56:51Z
2022-04-05T15:58:16Z,42.805,6.029,13.3085,4.60102,2470.063,2022-4-05T17:59:54Z
2022-04-05T16:01:19Z,42.805,6.029,13.3081,4.60092,2470.1,2022-4-05T18:02:57Z
